Location: Unspecified
(0.0000°N, 0.0000°E)
Time: 20:58:02
(UTC+00:00)

Vanguard 1 - Pass Details

Date: 18 June 2025
Orbit: 649 x 3822 km, 34.2° (Epoch: 12 July)

Event Time Altitude Azimuth Distance (km) Brightness Sun altitude
Exits shadow 05:14:06 - 217° (SW) 2,493 11.6 -10.8°
Reaches altitude 10° 05:14:13 10° 216° (SW) 2,450 11.6 -10.8°
Maximum altitude 05:19:44 53° 139° (SE) 1,361 10.9 -9.5°
Drops below altitude 10° 05:29:14 10° 65° (ENE) 4,136 15.1 -7.3°
Sets 05:33:48 0° 61° (ENE) 5,666 16.5 -6.3°
